| time (UTC) | temp F | wind direction | speed knots | gust knots | rain 1hr in | rain 24hr in | rain mn in | humidity % | barometer mb |
| 20260905195646 | 62 | 290 | 5.2 | 17.4 | 0.00 | 0.00 | 0.00 | 57 | 1022.0 |
| 20260905194146 | 62 | 290 | 5.2 | 17.4 | 0.00 | 0.00 | 0.00 | 57 | 1022.0 |
| 20260905192645 | 66 | 292 | 4.3 | 10.4 | 0.00 | 0.00 | 0.00 | 58 | 1022.0 |
| 20260905191145 | 66 | 292 | 4.3 | 10.4 | 0.00 | 0.00 | 0.00 | 55 | 1022.0 |
| 20260905185645 | 66 | 292 | 4.3 | 10.4 | 0.00 | 0.00 | 0.00 | 55 | 1022.0 |
| 20260905184144 | 66 | 306 | 6.1 | 16.5 | 0.00 | 0.00 | 0.00 | 54 | 1022.0 |
| 20260905182644 | 67 | 313 | 8.7 | 16.5 | 0.00 | 0.00 | 0.00 | 55 | 1021.0 |
| 20260905181143 | 67 | 313 | 8.7 | 16.5 | 0.00 | 0.00 | 0.00 | 55 | 1021.0 |
| 20260905175643 | 68 | 313 | 8.7 | 16.5 | 0.00 | 0.00 | 0.00 | 50 | 1021.0 |
| 20260905174143 | 68 | 313 | 8.7 | 16.5 | 0.00 | 0.00 | 0.00 | 50 | 1020.0 |
| 20260905172642 | 69 | 304 | 9.6 | 17.4 | 0.00 | 0.00 | 0.00 | 51 | 1020.0 |
| 20260905171142 | 70 | 304 | 9.6 | 17.4 | 0.00 | 0.00 | 0.00 | 51 | 1020.0 |
| 20260905165642 | 70 | 304 | 9.6 | 17.4 | 0.00 | 0.00 | 0.00 | 47 | 1020.0 |
| 20260905164141 | 71 | 304 | 9.6 | 17.4 | 0.00 | 0.00 | 0.00 | 47 | 1020.0 |
| 20260905162641 | 72 | 294 | 12.2 | 19.1 | 0.00 | 0.00 | 0.00 | 48 | 1019.0 |
| 20260905161140 | 72 | 294 | 12.2 | 19.1 | 0.00 | 0.00 | 0.00 | 48 | 1019.0 |
| 20260905155640 | 72 | 294 | 12.2 | 19.1 | 0.00 | 0.00 | 0.00 | 43 | 1019.0 |
| 20260905154140 | 72 | 294 | 12.2 | 19.1 | 0.00 | 0.00 | 0.00 | 43 | 1019.0 |
| 20260905152639 | 73 | 293 | 13.0 | 20.9 | 0.00 | 0.00 | 0.00 | 47 | 1019.0 |
| 20260905151139 | 74 | 293 | 13.0 | 20.9 | 0.00 | 0.00 | 0.00 | 47 | 1019.0 |
| 20260905145639 | 73 | 293 | 13.0 | 20.9 | 0.00 | 0.00 | 0.00 | 42 | 1019.0 |
| 20260905144138 | 74 | 293 | 13.0 | 20.9 | 0.00 | 0.00 | 0.00 | 42 | 1019.0 |
| 20260905142638 | 74 | 290 | 14.8 | 20.9 | 0.00 | 0.00 | 0.00 | 46 | 1019.0 |
| 20260905141138 | 74 | 290 | 14.8 | 20.9 | 0.00 | 0.00 | 0.00 | 47 | 1019.0 |
| 20260905135637 | 74 | 290 | 14.8 | 20.9 | 0.00 | 0.00 | 0.00 | 42 | 1018.0 |
| 20260905134137 | 74 | 290 | 14.8 | 20.9 | 0.00 | 0.00 | 0.00 | 42 | 1018.0 |
| 20260905132636 | 74 | 285 | 13.9 | 22.6 | 0.00 | 0.00 | 0.00 | 44 | 1019.0 |
| 20260905131136 | 72 | 285 | 13.9 | 22.6 | 0.00 | 0.00 | 0.00 | 44 | 1019.0 |
| 20260905125636 | 72 | 285 | 13.9 | 22.6 | 0.00 | 0.00 | 0.00 | 44 | 1019.0 |
| 20260905124136 | 73 | 280 | 13.0 | 21.7 | 0.00 | 0.00 | 0.00 | 44 | 1019.0 |
| 20260905122635 | 72 | 281 | 13.9 | 20.9 | 0.00 | 0.00 | 0.00 | 51 | 1020.0 |
| 20260905121135 | 72 | 281 | 13.9 | 20.9 | 0.00 | 0.00 | 0.00 | 52 | 1020.0 |
| 20260905115634 | 73 | 281 | 13.9 | 20.9 | 0.00 | 0.00 | 0.00 | 47 | 1019.0 |
| 20260905114134 | 72 | 281 | 13.9 | 20.9 | 0.00 | 0.00 | 0.00 | 47 | 1019.0 |
| 20260905112634 | 73 | 269 | 13.0 | 19.1 | 0.00 | 0.00 | 0.00 | 54 | 1020.0 |
| 20260905111133 | 73 | 269 | 13.0 | 19.1 | 0.00 | 0.00 | 0.00 | 56 | 1020.0 |
| 20260905105633 | 71 | 269 | 13.0 | 19.1 | 0.00 | 0.00 | 0.00 | 52 | 1019.0 |
| 20260905104133 | 71 | 269 | 13.0 | 19.1 | 0.00 | 0.00 | 0.00 | 52 | 1019.0 |
| 20260905102632 | 71 | 272 | 13.0 | 17.4 | 0.00 | 0.00 | 0.00 | 60 | 1020.0 |
| 20260905101132 | 70 | 272 | 13.0 | 17.4 | 0.00 | 0.00 | 0.00 | 63 | 1020.0 |
| 20260905095632 | 70 | 272 | 13.0 | 17.4 | 0.00 | 0.00 | 0.00 | 59 | 1020.0 |
| 20260905094131 | 70 | 272 | 13.0 | 17.4 | 0.00 | 0.00 | 0.00 | 59 | 1020.0 |
| 20260905092631 | 69 | 272 | 12.2 | 15.6 | 0.00 | 0.00 | 0.00 | 67 | 1020.0 |
| 20260905091130 | 68 | 272 | 12.2 | 15.6 | 0.00 | 0.00 | 0.00 | 69 | 1020.0 |
| 20260905085630 | 67 | 272 | 12.2 | 15.6 | 0.00 | 0.00 | 0.00 | 66 | 1020.0 |
| 20260905084130 | 65 | 272 | 12.2 | 15.6 | 0.00 | 0.00 | 0.00 | 68 | 1020.0 |
| 20260905082629 | 65 | 265 | 13.0 | 16.5 | 0.00 | 0.00 | 0.00 | 75 | 1020.0 |
| 20260905081129 | 65 | 265 | 13.0 | 16.5 | 0.00 | 0.00 | 0.00 | 77 | 1020.0 |
| 20260905075629 | 63 | 265 | 13.0 | 16.5 | 0.00 | 0.00 | 0.00 | 76 | 1020.0 |
| 20260905074128 | 62 | 265 | 13.0 | 16.5 | 0.00 | 0.00 | 0.00 | 76 | 1020.0 |
| 20260905072628 | 62 | 253 | 11.3 | 19.1 | 0.00 | 0.00 | 0.00 | 84 | 1019.0 |
| 20260905071128 | 60 | 253 | 11.3 | 19.1 | 0.00 | 0.00 | 0.00 | 84 | 1019.0 |
| 20260905065627 | 60 | 253 | 11.3 | 19.1 | 0.00 | 0.00 | 0.00 | 84 | 1019.0 |
| 20260905064127 | 59 | 248 | 8.7 | 18.2 | 0.00 | 0.00 | 0.00 | 86 | 1019.0 |
| 20260905062627 | 59 | 240 | 9.6 | 18.2 | 0.00 | 0.00 | 0.00 | 88 | 1019.0 |
| 20260905061126 | 58 | 240 | 9.6 | 18.2 | 0.00 | 0.00 | 0.00 | 89 | 1019.0 |
| 20260905055626 | 58 | 240 | 9.6 | 18.2 | 0.00 | 0.00 | 0.00 | 88 | 1019.0 |
| 20260905054125 | 58 | 240 | 9.6 | 18.2 | 0.00 | 0.00 | 0.00 | 88 | 1019.0 |
| 20260905052625 | 58 | 270 | 6.1 | 19.1 | 0.00 | 0.00 | 0.00 | 89 | 1018.0 |
| 20260905051125 | 58 | 270 | 6.1 | 19.1 | 0.00 | 0.00 | 0.00 | 89 | 1018.0 |
| 20260905045624 | 58 | 270 | 6.1 | 19.1 | 0.00 | 0.00 | 0.00 | 90 | 1018.0 |
| 20260905044124 | 58 | 270 | 6.1 | 19.1 | 0.01 | 0.00 | 0.00 | 89 | 1018.0 |
| 20260905042623 | 59 | 294 | 10.4 | 17.4 | 0.01 | 0.00 | 0.00 | 88 | 1017.0 |
| 20260905041123 | 59 | 294 | 10.4 | 17.4 | 0.01 | 0.00 | 0.00 | 87 | 1017.0 |
| 20260905035623 | 60 | 294 | 10.4 | 17.4 | 0.01 | 0.00 | 0.00 | 83 | 1018.0 |
| 20260905034122 | 60 | 294 | 10.4 | 17.4 | 0.00 | 0.00 | 0.00 | 82 | 1018.0 |
| 20260905032622 | 61 | 293 | 5.2 | 12.2 | 0.00 | 0.00 | 0.00 | 82 | 1017.0 |
| 20260905031121 | 61 | 293 | 5.2 | 12.2 | 0.00 | 0.00 | 0.00 | 81 | 1017.0 |
| 20260905025621 | 61 | 293 | 5.2 | 12.2 | 0.00 | 0.00 | 0.00 | 81 | 1016.0 |
| 20260905024121 | 62 | 293 | 5.2 | 12.2 | 0.00 | 0.00 | 0.00 | 81 | 1016.0 |
| 20260905022620 | 62 | 277 | 2.6 | 11.3 | 0.00 | 0.00 | 0.00 | 78 | 1016.0 |
| 20260905021120 | 63 | 277 | 2.6 | 11.3 | 0.00 | 0.00 | 0.00 | 77 | 1016.0 |
| 20260905015619 | 64 | 277 | 2.6 | 11.3 | 0.00 | 0.00 | 0.00 | 80 | 1016.0 |
| 20260905014119 | 65 | 277 | 2.6 | 11.3 | 0.00 | 0.00 | 0.00 | 73 | 1016.0 |
| 20260905012619 | 65 | 312 | 5.2 | 13.0 | 0.00 | 0.00 | 0.00 | 72 | 1016.0 |
| 20260905011119 | 65 | 312 | 5.2 | 13.0 | 0.00 | 0.00 | 0.00 | 72 | 1016.0 |
| 20260905005618 | 66 | 312 | 5.2 | 13.0 | 0.00 | 0.00 | 0.00 | 75 | 1015.0 |
| 20260905004118 | 66 | 312 | 5.2 | 13.0 | 0.00 | 0.00 | 0.00 | 75 | 1015.0 |
| 20260905002617 | 66 | 310 | 11.3 | 18.2 | 0.00 | 0.00 | 0.00 | 71 | 1015.0 |
| 20260905001117 | 66 | 310 | 11.3 | 18.2 | 0.00 | 0.00 | 0.00 | 71 | 1015.0 |
| 20260904235617 | 66 | 310 | 11.3 | 18.2 | 0.00 | 0.00 | 0.00 | 76 | 1015.0 |
| 20260904234116 | 65 | 310 | 11.3 | 18.2 | 0.00 | 0.00 | 0.00 | 76 | 1014.0 |
| 20260904232616 | 65 | 297 | 10.4 | 20.0 | 0.00 | 0.00 | 0.00 | 73 | 1014.0 |
| 20260904231115 | 65 | 297 | 10.4 | 20.0 | 0.00 | 0.00 | 0.00 | 72 | 1014.0 |
| 20260904225615 | 65 | 297 | 10.4 | 20.0 | 0.00 | 0.00 | 0.00 | 70 | 1013.0 |
| 20260904224115 | 67 | 297 | 10.4 | 20.0 | 0.00 | 0.00 | 0.00 | 70 | 1013.0 |
| 20260904222614 | 67 | 277 | 10.4 | 21.7 | 0.00 | 0.00 | 0.00 | 70 | 1013.0 |
| 20260904221114 | 67 | 277 | 10.4 | 21.7 | 0.00 | 0.00 | 0.00 | 69 | 1012.0 |
| 20260904215614 | 68 | 277 | 10.4 | 21.7 | 0.00 | 0.00 | 0.00 | 66 | 1012.0 |
| 20260904214113 | 69 | 277 | 10.4 | 21.7 | 0.00 | 0.00 | 0.00 | 66 | 1012.0 |
| 20260904212613 | 70 | 261 | 11.3 | 24.3 | 0.00 | 0.00 | 0.00 | 66 | 1012.0 |
| 20260904211112 | 71 | 261 | 11.3 | 24.3 | 0.00 | 0.00 | 0.00 | 66 | 1011.0 |
| 20260904205612 | 73 | 261 | 11.3 | 24.3 | 0.00 | 0.00 | 0.00 | 62 | 1011.0 |
| 20260904204112 | 73 | 261 | 11.3 | 24.3 | 0.00 | 0.00 | 0.00 | 62 | 1011.0 |
| 20260904202611 | 74 | 253 | 11.3 | 24.3 | 0.00 | 0.00 | 0.00 | 63 | 1011.0 |
| 20260904201111 | 74 | 253 | 11.3 | 24.3 | 0.00 | 0.00 | 0.00 | 63 | 1011.0 |